Time,TemperatureF,DewpointF,PressureIn,WindDirection,WindDirectionDegrees,WindSpeedMPH,WindSpeedGustMPH,Humidity,HourlyPrecipIn,Conditions,Clouds,dailyrainin,SolarRadiationWatts/m^2,SoftwareType,DateUTC
2013-01-03 00:22:00,32.0,32.0,-100.00,East,84,0.0,4.0,100,0.00,,,0.00,0.000000,,2013-01-03 09:22:00,
2013-01-03 00:33:00,32.0,32.0,-100.00,East,84,0.0,4.0,100,0.00,,,0.00,0.000000,,2013-01-03 09:33:00,
2013-01-03 00:42:00,32.0,32.0,-100.00,East,84,0.0,4.0,100,0.00,,,0.00,0.000000,,2013-01-03 09:42:00,
2013-01-03 00:52:00,32.0,32.0,-100.00,East,84,0.0,4.0,100,0.00,,,0.00,0.000000,,2013-01-03 09:52:00,
2013-01-03 01:22:00,32.0,32.0,-100.00,ENE,59,0.0,2.0,100,0.00,,,0.00,0.000000,,2013-01-03 10:22:00,
2013-01-03 01:32:00,32.0,32.0,-100.00,ENE,59,0.0,2.0,100,0.00,,,0.00,0.000000,,2013-01-03 10:32:00,
2013-01-03 01:42:00,32.0,32.0,-100.00,ENE,59,0.0,2.0,100,0.00,,,0.00,0.000000,,2013-01-03 10:42:00,
2013-01-03 01:52:00,32.0,32.0,-100.00,ENE,59,0.0,2.0,100,0.00,,,0.00,0.000000,,2013-01-03 10:52:00,
2013-01-03 02:22:00,32.0,32.0,-100.00,ENE,67,0.0,2.0,100,0.00,,,0.00,0.000000,,2013-01-03 11:22:00,
2013-01-03 02:33:00,32.0,32.0,-100.00,ENE,67,0.0,2.0,100,0.00,,,0.00,0.000000,,2013-01-03 11:33:00,
2013-01-03 02:42:00,32.0,32.0,-100.00,ENE,67,0.0,2.0,100,0.00,,,0.00,0.000000,,2013-01-03 11:42:00,
2013-01-03 02:52:00,32.0,32.0,-100.00,ENE,67,0.0,2.0,100,0.00,,,0.00,0.000000,,2013-01-03 11:52:00,
2013-01-03 03:22:00,32.0,32.0,-100.00,East,79,0.0,3.0,100,0.00,,,0.00,0.000000,,2013-01-03 12:22:00,
2013-01-03 03:32:00,32.0,32.0,-100.00,East,79,0.0,3.0,100,0.00,,,0.00,0.000000,,2013-01-03 12:32:00,
2013-01-03 03:42:00,32.0,32.0,-100.00,East,79,0.0,3.0,100,0.00,,,0.00,0.000000,,2013-01-03 12:42:00,
2013-01-03 03:52:00,32.0,32.0,-100.00,East,79,0.0,3.0,100,0.00,,,0.00,0.000000,,2013-01-03 12:52:00,
2013-01-03 04:22:00,33.0,33.0,-100.00,NE,48,3.0,9.0,100,0.00,,,0.00,0.000000,,2013-01-03 13:22:00,
2013-01-03 04:32:00,33.0,33.0,-100.00,NE,48,3.0,9.0,100,0.00,,,0.00,0.000000,,2013-01-03 13:32:00,
2013-01-03 04:42:00,33.0,33.0,-100.00,NE,48,3.0,9.0,100,0.00,,,0.00,0.000000,,2013-01-03 13:42:00,
2013-01-03 04:52:00,33.0,33.0,-100.00,NE,48,3.0,9.0,100,0.00,,,0.00,0.000000,,2013-01-03 13:52:00,
2013-01-03 05:22:00,34.0,34.0,-100.00,NE,43,4.0,9.0,99,0.00,,,0.00,0.000000,,2013-01-03 14:22:00,
2013-01-03 05:32:00,34.0,34.0,-100.00,NE,43,4.0,9.0,99,0.00,,,0.00,0.000000,,2013-01-03 14:32:00,
2013-01-03 05:42:00,34.0,34.0,-100.00,NE,43,4.0,9.0,99,0.00,,,0.00,0.000000,,2013-01-03 14:42:00,
2013-01-03 05:53:00,34.0,34.0,-100.00,NE,43,4.0,9.0,99,0.00,,,0.00,0.000000,,2013-01-03 14:53:00,
2013-01-03 06:22:00,34.0,33.0,-100.00,NNE,14,4.0,10.0,96,0.00,,,0.00,0.000000,,2013-01-03 15:22:00,
2013-01-03 06:33:00,34.0,33.0,-100.00,NNE,14,4.0,10.0,96,0.00,,,0.00,0.000000,,2013-01-03 15:33:00,
2013-01-03 06:42:00,34.0,33.0,-100.00,NNE,14,4.0,10.0,96,0.00,,,0.00,0.000000,,2013-01-03 15:42:00,
2013-01-03 06:53:00,34.0,33.0,-100.00,NNE,14,4.0,10.0,96,0.00,,,0.00,0.000000,,2013-01-03 15:53:00,
2013-01-03 07:22:00,34.0,33.0,-100.00,North,10,4.0,11.0,97,0.00,,,0.00,0.000000,,2013-01-03 16:22:00,
2013-01-03 07:33:00,34.0,33.0,-100.00,North,10,4.0,11.0,97,0.00,,,0.00,0.000000,,2013-01-03 16:33:00,
2013-01-03 07:43:00,34.0,33.0,-100.00,North,10,4.0,11.0,97,0.00,,,0.00,0.000000,,2013-01-03 16:43:00,
2013-01-03 07:52:00,34.0,33.0,-100.00,North,10,4.0,11.0,97,0.00,,,0.00,0.000000,,2013-01-03 16:52:00,
2013-01-03 08:22:00,34.0,33.0,-100.00,NNE,15,4.0,9.0,97,0.00,,,0.00,0.000000,,2013-01-03 17:22:00,
2013-01-03 08:33:00,34.0,33.0,-100.00,NNE,15,4.0,9.0,97,0.00,,,0.00,0.000000,,2013-01-03 17:33:00,
2013-01-03 08:42:00,34.0,33.0,-100.00,NNE,15,4.0,9.0,97,0.00,,,0.00,0.000000,,2013-01-03 17:42:00,
2013-01-03 08:52:00,34.0,33.0,-100.00,NNE,15,4.0,9.0,97,0.00,,,0.00,0.000000,,2013-01-03 17:52:00,
2013-01-03 09:22:00,34.0,33.0,-100.00,North,5,4.0,13.0,95,0.00,,,0.00,0.000000,,2013-01-03 18:22:00,
2013-01-03 09:33:00,34.0,33.0,-100.00,North,5,4.0,13.0,95,0.00,,,0.00,0.000000,,2013-01-03 18:33:00,
2013-01-03 09:42:00,34.0,33.0,-100.00,North,5,4.0,13.0,95,0.00,,,0.00,0.000000,,2013-01-03 18:42:00,
2013-01-03 09:53:00,34.0,33.0,-100.00,North,5,4.0,13.0,95,0.00,,,0.00,0.000000,,2013-01-03 18:53:00,
2013-01-03 10:53:00,34.0,34.0,-100.00,North,5,6.0,11.0,98,0.00,,,0.00,0.000000,,2013-01-03 19:53:00,
2013-01-03 11:22:00,34.0,34.0,-100.00,North,11,5.0,11.0,98,0.04,,,0.04,1.000000,,2013-01-03 20:22:00,
2013-01-03 11:33:00,34.0,34.0,-100.00,North,11,5.0,11.0,98,0.04,,,0.04,1.000000,,2013-01-03 20:33:00,
2013-01-03 11:42:00,34.0,34.0,-100.00,North,11,5.0,11.0,98,0.04,,,0.04,1.000000,,2013-01-03 20:42:00,
2013-01-03 11:53:00,34.0,34.0,-100.00,North,11,5.0,11.0,98,0.04,,,0.04,1.000000,,2013-01-03 20:53:00,
2013-01-03 12:22:00,34.0,34.0,-100.00,NNE,14,4.0,12.0,98,0.05,,,0.09,3.000000,,2013-01-03 21:22:00,
2013-01-03 12:35:00,34.0,34.0,-100.00,NNE,14,4.0,12.0,98,0.05,,,0.09,3.000000,,2013-01-03 21:35:00,
2013-01-03 12:46:00,34.0,34.0,-100.00,NNE,14,4.0,12.0,98,0.05,,,0.09,3.000000,,2013-01-03 21:46:00,
2013-01-03 12:52:00,34.0,34.0,-100.00,NNE,14,4.0,12.0,98,0.05,,,0.09,3.000000,,2013-01-03 21:52:00,
2013-01-03 13:22:00,34.0,34.0,-100.00,NNE,22,4.0,9.0,99,0.06,,,0.15,7.000000,,2013-01-03 22:22:00,
2013-01-03 13:32:00,34.0,34.0,-100.00,NNE,22,4.0,9.0,99,0.06,,,0.15,7.000000,,2013-01-03 22:32:00,
2013-01-03 13:42:00,34.0,34.0,-100.00,NNE,22,4.0,9.0,99,0.06,,,0.15,7.000000,,2013-01-03 22:42:00,
2013-01-03 13:52:00,34.0,34.0,-100.00,NNE,22,4.0,9.0,99,0.06,,,0.15,7.000000,,2013-01-03 22:52:00,
2013-01-03 14:22:00,34.0,34.0,-100.00,NNE,15,4.0,11.0,98,0.05,,,0.20,10.000000,,2013-01-03 23:22:00,
2013-01-03 14:32:00,34.0,34.0,-100.00,NNE,15,4.0,11.0,98,0.05,,,0.20,10.000000,,2013-01-03 23:32:00,
2013-01-03 14:42:00,34.0,34.0,-100.00,NNE,15,4.0,11.0,98,0.05,,,0.20,10.000000,,2013-01-03 23:42:00,
2013-01-03 14:52:00,34.0,34.0,-100.00,NNE,15,4.0,11.0,98,0.05,,,0.20,10.000000,,2013-01-03 23:52:00,
2013-01-03 15:22:00,34.0,33.0,-100.00,NNE,19,4.0,9.0,95,0.04,,,0.24,9.000000,,2013-01-04 00:22:00,
2013-01-03 15:32:00,34.0,33.0,-100.00,NNE,19,4.0,9.0,95,0.04,,,0.24,9.000000,,2013-01-04 00:32:00,
2013-01-03 15:42:00,34.0,33.0,-100.00,NNE,19,4.0,9.0,95,0.04,,,0.24,9.000000,,2013-01-04 00:42:00,
2013-01-03 15:52:00,34.0,33.0,-100.00,NNE,19,4.0,9.0,95,0.04,,,0.24,9.000000,,2013-01-04 00:52:00,
2013-01-03 16:22:00,35.0,34.0,-100.00,NE,39,3.0,8.0,95,0.03,,,-99.99,5.000000,,2013-01-04 01:22:00,
2013-01-03 16:32:00,35.0,34.0,-100.00,NE,39,3.0,8.0,95,0.03,,,-99.99,5.000000,,2013-01-04 01:32:00,
2013-01-03 16:42:00,35.0,34.0,-100.00,NE,39,3.0,8.0,95,0.03,,,-99.99,5.000000,,2013-01-04 01:42:00,
2013-01-03 16:52:00,35.0,34.0,-100.00,NE,39,3.0,8.0,95,0.03,,,-99.99,5.000000,,2013-01-04 01:52:00,
2013-01-03 17:22:00,34.0,32.0,-100.00,North,8,4.0,9.0,94,0.03,,,0.30,1.000000,,2013-01-04 02:22:00,
2013-01-03 17:32:00,34.0,32.0,-100.00,North,8,4.0,9.0,94,0.03,,,0.30,1.000000,,2013-01-04 02:32:00,
2013-01-03 17:42:00,34.0,32.0,-100.00,North,8,4.0,9.0,94,0.03,,,0.30,1.000000,,2013-01-04 02:42:00,
2013-01-03 17:52:00,34.0,32.0,-100.00,North,8,4.0,9.0,94,0.03,,,0.30,1.000000,,2013-01-04 02:52:00,
2013-01-03 18:22:00,35.0,32.0,-100.00,NNE,24,3.0,9.0,88,0.03,,,0.33,0.000000,,2013-01-04 03:22:00,
2013-01-03 18:32:00,35.0,32.0,-100.00,NNE,24,3.0,9.0,88,0.03,,,0.33,0.000000,,2013-01-04 03:32:00,
2013-01-03 18:42:00,35.0,32.0,-100.00,NNE,24,3.0,9.0,88,0.03,,,0.33,0.000000,,2013-01-04 03:42:00,
2013-01-03 18:52:00,35.0,32.0,-100.00,NNE,24,3.0,9.0,88,0.03,,,0.33,0.000000,,2013-01-04 03:52:00,
2013-01-03 19:22:00,35.0,32.0,-100.00,NNE,26,3.0,9.0,89,0.02,,,0.35,0.000000,,2013-01-04 04:22:00,
2013-01-03 19:32:00,35.0,32.0,-100.00,NNE,26,3.0,9.0,89,0.02,,,0.35,0.000000,,2013-01-04 04:32:00,
2013-01-03 19:42:00,35.0,32.0,-100.00,NNE,26,3.0,9.0,89,0.02,,,0.35,0.000000,,2013-01-04 04:42:00,
2013-01-03 19:52:00,35.0,32.0,-100.00,NNE,26,3.0,9.0,89,0.02,,,0.35,0.000000,,2013-01-04 04:52:00,
2013-01-03 20:22:00,34.0,32.0,-100.00,NE,35,2.0,6.0,94,0.02,,,0.37,0.000000,,2013-01-04 05:22:00,
2013-01-03 20:33:00,34.0,32.0,-100.00,NE,35,2.0,6.0,94,0.02,,,0.37,0.000000,,2013-01-04 05:33:00,
2013-01-03 20:42:00,34.0,32.0,-100.00,NE,35,2.0,6.0,94,0.02,,,0.37,0.000000,,2013-01-04 05:42:00,
2013-01-03 20:52:00,34.0,32.0,-100.00,NE,35,2.0,6.0,94,0.02,,,0.37,0.000000,,2013-01-04 05:52:00,
2013-01-03 21:22:00,33.0,32.0,-100.00,NE,38,1.0,6.0,98,0.01,,,0.38,0.000000,,2013-01-04 06:22:00,
2013-01-03 21:32:00,33.0,32.0,-100.00,NE,38,1.0,6.0,98,0.01,,,0.38,0.000000,,2013-01-04 06:32:00,
2013-01-03 21:42:00,33.0,32.0,-100.00,NE,38,1.0,6.0,98,0.01,,,0.38,0.000000,,2013-01-04 06:42:00,
2013-01-03 21:52:00,33.0,32.0,-100.00,NE,38,1.0,6.0,98,0.01,,,0.38,0.000000,,2013-01-04 06:52:00,
2013-01-03 22:22:00,33.0,31.0,-100.00,SSE,158,1.0,6.0,94,0.02,,,0.40,0.000000,,2013-01-04 07:22:00,
2013-01-03 22:32:00,33.0,31.0,-100.00,SSE,158,1.0,6.0,94,0.02,,,0.40,0.000000,,2013-01-04 07:32:00,
2013-01-03 22:42:00,33.0,31.0,-100.00,SSE,158,1.0,6.0,94,0.02,,,0.40,0.000000,,2013-01-04 07:42:00,
2013-01-03 22:52:00,33.0,31.0,-100.00,SSE,158,1.0,6.0,94,0.02,,,0.40,0.000000,,2013-01-04 07:52:00,
2013-01-03 23:22:00,33.0,33.0,-100.00,SSW,202,1.0,4.0,100,0.02,,,0.42,0.000000,,2013-01-04 08:22:00,
2013-01-03 23:32:00,33.0,33.0,-100.00,SSW,202,1.0,4.0,100,0.02,,,0.42,0.000000,,2013-01-04 08:32:00,
2013-01-03 23:42:00,33.0,33.0,-100.00,SSW,202,1.0,4.0,100,0.02,,,0.42,0.000000,,2013-01-04 08:42:00,
2013-01-03 23:52:00,33.0,33.0,-100.00,SSW,202,1.0,4.0,100,0.02,,,0.42,0.000000,,2013-01-04 08:52:00,